Regional Weather Roundup
Issued by NWS Wakefield, VA

Home | Current Version | Previous Version | Text Only | Print | Product List | Glossary Off
Versions: 1 2 3 4 5 6 7 8 9 10 11 12 13 14 15 16 17 18 19 20 21 22 23 24 25 26 27 28 29 30 31 32 33 34 35 36 37 38 39 40 41 42 43 44 45 46 47 48 49 50
000 ASUS41 KAKQ 291810 RWRAKQ REGIONAL WEATHER ROUNDUP NATIONAL WEATHER SERVICE WAKEFIELD VA 200 PM EDT TUE JUL 29 2014 Note: "fair" indicates few or no clouds below 12,000 feet with no significant weather and/or obstructions to visibility. * = Denotes station may not report precipitation (e.g., rain,snow,etc.), thunder or fog. VAZ042-051-052>054-056-291900- NORTHERN VIRGINIA CITY SKY/WX TMP DP RH WIND PRES REMARKS WASH NATIONAL MOSUNNY 75 48 38 NW14G21 29.95S DULLES PTSUNNY 72 46 39 NW17G23 29.95S FORT BELVOIR MOSUNNY 74 50 42 NW16G23 29.95R QUANTICO MOSUNNY 75 51 43 NW14 29.95F FREDERICKSBRG* PTSUNNY 77 55 47 W12G17 29.94S STAFFORD* SUNNY 76 52 43 NW13 29.98F WARRENTON PTSUNNY 76 60 58 W5 29.95S CULPEPER* MOSUNNY N/A N/A N/A NW6 29.95F MANASSAS* NOT AVBL LEESBURG* MOSUNNY 72 54 53 NW12G21 29.96S WINCHESTER MOSUNNY 70 45 40 NW12G22 29.97S $$ VAZ048-049-060>072-079>083-291900- CENTRAL AND SOUTH CENTRAL VIRGINIA...AND NORTH CENTRAL NORTH CAROLINA CITY SKY/WX TMP DP RH WIND PRES REMARKS RICHMOND MOSUNNY 81 50 33 NW12G18 29.94S CHESTERFIELD* CLEAR 79 48 34 NW6 29.96F HANOVER MOSUNNY 78 52 40 N8 29.96S TAPPAHANNOCK* PTSUNNY 78 47 32 W9 29.95R CHARLOTTSVILLE MOSUNNY 73 55 53 NW7 29.96F ORANGE* PTSUNNY 73 54 49 NW8 29.97F LOUISA* PTSUNNY 75 55 50 NW7 29.95S FARMVILLE* CLOUDY 77 50 38 CALM 29.94S SOUTH HILL* SUNNY 79 54 41 NW5 30.00F ROANOKE RAPIDS NOT AVBL RALEIGH MOSUNNY 78 57 48 CALM 29.95F $$ VAZ088>098-291900- SOUTHEAST VIRGINIA CITY SKY/WX TMP DP RH WIND PRES REMARKS NORFOLK SUNNY 77 61 57 N9 29.94R VIRGINIA BEACH MOSUNNY 78 62 57 N10 29.93S NORFOLK NAVAL MOSUNNY 76 61 59 NE6 29.95S WEST POINT* SUNNY 79 47 31 W8 29.95S NEWPORT NEWS MOSUNNY 82 58 43 N8 29.94R LANGLEY AFB MOSUNNY 78 58 51 NE8 29.93R FORT EUSTIS SUNNY 77 56 48 NW8 29.92S WILLIAMSBURG* SUNNY 82 57 42 N5 29.95S FRANKLIN* SUNNY 79 55 44 N8 29.94S WAKEFIELD SUNNY 79 53 40 VRB6 29.94S $$ VAZ020-022-025-037-045-291900- WESTERN AND SOUTHWEST VIRGINIA CITY SKY/WX TMP DP RH WIND PRES REMARKS STAUNTON* MOSUNNY 72 50 46 W9G16 29.99F HOT SPRINGS VA PTSUNNY 59 49 68 W10 30.07S LYNCHBURG CLOUDY 73 56 54 VRB5 29.98S DANVILLE MOSUNNY 79 54 41 CALM 29.96F MARTINSVILLE PTSUNNY 79 55 43 N3 29.99F ROANOKE MOSUNNY 77 48 35 S6 29.97F BLACKSBURG PTSUNNY 72 54 53 NW7 30.02F DUBLIN* MOSUNNY 74 50 43 W10 30.02F MARION* PTSUNNY 69 50 50 NW7 30.06F HILLSVILLE* MOSUNNY 72 47 41 NW7 30.03F RICHLANDS* PTCLDY 71 52 50 W6 30.05S WISE* PTSUNNY 64 52 63 NW6 30.08F ABINGDON* MOSUNNY 74 53 47 NW10 30.04F $$ MDZ021>025-VAZ099-100-291900- SOUTHERN MARYLAND AND THE DELMARVA PENINSULA CITY SKY/WX TMP DP RH WIND PRES REMARKS PATUXENT RIVER MOSUNNY 78 50 37 NW14G29 29.93R BAY BRIDGE APT N/A 73 48 40 W8 29.92S LEONARDTOWN SUNNY 73 50 43 W10G20 29.95R DOVER PTSUNNY 74 59 59 SW6 29.89S GEORGETOWN CLOUDY 75 56 51 VRB7 29.92R EASTON MOSUNNY 75 55 50 NW8 29.96R CAMBRIDGE MOSUNNY 77 52 41 W8G18 29.92S SALISBURY PTSUNNY N/A N/A N/A MISG 29.91S OCEAN CITY CLOUDY 71 61 70 E7 29.92R WALLOPS ISLAND PTSUNNY 76 58 53 NW9 29.93R ACCOMACK* N/A 73 55 53 NW13G18 29.94R $$ NCZ012>017-030>032-291900- EASTERN NORTH CAROLINA CITY SKY/WX TMP DP RH WIND PRES REMARKS ELIZABETH CITY PTSUNNY 79 63 57 N6 29.93R AHOSKIE* SUNNY 77 56 47 N7 29.94F EDENTON* MOSUNNY 80 62 54 N10 29.93S CURRITUCK* PTSUNNY 80 61 52 NE8 29.94R KILL DEVIL HLS SUNNY 78 65 63 NE8 29.92S MANTEO NOT AVBL CAPE HATTERAS PTSUNNY 82 67 60 NE9 29.92S GOLDSBORO SUNNY 80 64 56 N7 29.91F WASHINGTON SUNNY 79 62 56 N5 29.93S GREENVILLE SUNNY 81 61 50 NE8 29.95F NEW BERN MOSUNNY 85 63 47 VRB3 29.92F WILMINGTON PTSUNNY 85 65 51 NE5 29.90F $$ VAZ048-291900- ELSEWHERE CITY SKY/WX TMP DP RH WIND PRES REMARKS HARRISBURG PA CLOUDY 71 53 52 W8 29.91F BALTIMORE PTSUNNY 72 50 45 W9G18 29.92S ANNAPOLIS MOSUNNY 72 51 47 W9 29.92S ANDREWS AFB PTSUNNY 73 50 43 NW15 29.94S WILMINGTON DE CLOUDY 74 54 49 NW5 29.91S PHILADELPHIA CLOUDY 74 51 44 VRB6 29.90S WILDWOOD NJ* CLOUDY 73 54 49 W7 29.92S ATLANTIC CITY CLOUDY 76 54 46 W6 29.89S HENDERSON NC SUNNY 77 52 41 NW3 29.97S GREENSBORO MOSUNNY 78 55 44 VRB3 29.96F ROCKY MOUNT SUNNY 81 54 39 N6 29.94F FAYETTEVILLE MOSUNNY 86 58 38 N8 29.92F CHARLOTTE MOSUNNY 78 54 43 CALM 29.97F $$ VAZ100-291900- MARINE STATION/POSITION TIME TEMP WIND PRES WAVE SWELL AIR SEA DIR/SP/G HT/PER HT/PER (UTC) (F) (DEG/KT/KT) (MB) (FT/S) (FT/S) 44066 TX TWR #4 1800 69 75 320/ 6/ 8 1012.0R 4/ 8 3/ 8 CAPE MAY NJ 1800 74 78 320/ 4/ 6 1012.4F LEWES DE 1800 70 74 50/ 6/ 7 1012.6S 15NM E FENWICK I 1800 69 74 1013.3R 2/ 8 OCEAN-CITY-INLET 1800 71 69 90/ 6/ 10 1012.7S WACHAPREAGUE VA 1800 77 78 300/ 3/ 6 1013.6R THOMAS POINT MD 1800 69 78 250/ 15/ 17 1013.9R GOOSES REEF MD 1800 72 310/ 14/ 17 1013.9R COVE POINT MD 1800 72 310/ 12/ 15 1013.2F SOLOMONS ISLAND 1800 80 N/A BISHOPS HEAD MD 1800 72 78 300/ 10/ 12 1013.0S PINEY POINT MD 1800 330/ 17/ 20 N/A POTOMAC MD 1700 72 320/ 14/ 17 1012.8S CAMBRIDGE MD 1800 72 79 320/ 7/ 15 1012.8F LEWISETTA VA 1800 73 78 350/ 12/ 16 1013.3S RAPPAHANNOCK LGT 1800 330/ 6/ 9 1014.2S STINGRAY PT 1800 74 290/ 10/ 14 1014.1F YORK RVR RNG VA 1800 74 360/ 8/ 9 1013.1S YORKTOWN VA 1800 74 79 310/ 12/ 13 1013.5S JAMESTOWN VA 1800 74 330/ 8/ 12 N/A DOMINION TERM VA 1800 74 300/ 11/ 13 1013.7S KIPTOPEKE VA 1800 81 340/ 9/ 12 N/A CHES BAY BRIDGE 1800 72 76 350/ 7/ 10 1013.2S CAPE HENRY VA 1800 72 350/ 8/ 10 1012.7S WILLOUBY STN VA 1800 70/ 5/ 6 1013.0S S CRANEY ISL VA 1800 320/ 4/ 7 1013.7R CAPE HENRY BUOY 1800 78 N/A 2/ 8 1ST LANDING BUOY 1800 73 360/ 6/ 12 1013.5F CAPE CHARLES BUO 1800 76 N/A 2/ 8 OFFSHORE WE BUOY 1800 78 N/A 3/ 8 64NM E OF VA BCH 1800 74 78 350/ 8/ 12 1013.1R 3/ 7 2/ 7 DUCK PIER NC 1800 73 71 20/ 11/ 12 1012.8R 44056 DUCK FRF 1800 N/A 2/ 4 OREGON INLET NC 1800 76 78 20/ 10/ 12 1013.2R HATTERAS NC 1800 78 80 20/ 8/ 11 1013.4S DIAMOND SHLS NC 1700 VRB 14/ 16 1012.3R 4/ 8 3/ 8 CAPE LOOKOUT NC 1700 78 40/ 12/ 14 1012.8R $$

USA.gov is the U.S. government's official web portal to all federal, state and local government web resources and services.